This is the latest recevied weather packets stored in our database for station/object KU9TRY. If no packets are shown the sender has not sent any weather packets the latest 10 day(s).
| Time | Temp. | Humidity | Pressure | Rain* | Wind** | Luminosity | Snow |
|---|---|---|---|---|---|---|---|
| 1778342735 | 20.56° C | 69% | 1011.9 hPa | 0 mm | - | 1059 W/m² | - |
| 1778342431 | 20.56° C | 65% | 1012.1 hPa | 0 mm | - | 306 W/m² | - |
| 1778342127 | 20.56° C | 66% | 1011.9 hPa | 0 mm | - | 1010 W/m² | - |
| 1778341823 | 20° C | 67% | 1012 hPa | 0 mm | - | 1060 W/m² | - |
| 1778341520 | 20° C | 68% | 1012 hPa | 0 mm | - | 422 W/m² | - |
| 1778341218 | 19.44° C | 69% | 1012.1 hPa | 0 mm | - | 260 W/m² | - |
| 1778340914 | 19.44° C | 71% | 1012 hPa | 0 mm | - | 204 W/m² | - |
| 1778340611 | 20° C | 68% | 1011.8 hPa | 0 mm | - | 329 W/m² | - |
| 1778340307 | 20° C | 67% | 1011.7 hPa | 0 mm | - | 543 W/m² | - |
| 1778340004 | 20° C | 68% | 1011.8 hPa | 0 mm | - | 406 W/m² | - |
| 1778339700 | 19.44° C | 68% | 1011.7 hPa | 0 mm | - | 423 W/m² | - |
| 1778339399 | 18.89° C | 71% | 1011.9 hPa | 0 mm | - | 343 W/m² | - |
| 1778339095 | 18.89° C | 73% | 1011.7 hPa | 0 mm | - | 292 W/m² | - |
| 1778338793 | 18.89° C | 70% | 1011.6 hPa | 0 mm | - | 314 W/m² | - |
| 1778338489 | 18.33° C | 72% | 1011.7 hPa | 0 mm | - | 289 W/m² | - |
| 1778338184 | 18.33° C | 73% | 1011.7 hPa | 0 mm | - | 316 W/m² | - |
| 1778337881 | 18.33° C | 71% | 1011.4 hPa | 0 mm | - | 285 W/m² | - |
| 1778337578 | 18.33° C | 74% | 1011.5 hPa | 0 mm | - | 243 W/m² | - |
| 1778337276 | 17.78° C | 73% | 1011.4 hPa | 0 mm | - | 213 W/m² | - |
| 1778336972 | 17.78° C | 73% | 1011.2 hPa | 0 mm | - | 194 W/m² | - |
| 1778336668 | 17.78° C | 75% | 1011.5 hPa | 0 mm | - | 229 W/m² | - |
| 1778336364 | 17.78° C | 73% | 1011.4 hPa | 0 mm | - | 171 W/m² | - |
| 1778336061 | 17.78° C | 74% | 1011.6 hPa | 0 mm | - | 186 W/m² | - |
| 1778335758 | 18.33° C | 72% | 1011.6 hPa | 0 mm | - | 215 W/m² | - |
| 1778335454 | 17.78° C | 74% | 1011.5 hPa | 0 mm | - | 280 W/m² | - |
* Rain latest hour (hover to see other rain measurements)
** Current wind speed in m/s (hover to see current wind gust speed)